Tracking 22124 objects as of 25-Jan-2021
HD Live streaming from Space Station
objects crossing your sky now

STARLINK-1225

Track STARLINK-1225 now!
10-day predictions
STARLINK-1225 is classified as:


NORAD ID: 45187
Int'l Code: 2020-012K
Perigee: 553.2 km
Apogee: 555.5 km
Inclination: 53.1 °
Period: 95.6 minutes
Semi major axis: 6925 km
RCS: Unknown
Launch date: February 17, 2020
Source: United States (US)
Launch site: AIR FORCE EASTERN TEST RANGE (AFETR)
aabbcc
Your satellite tracking list
Your tracking list is empty




NASA's NSSDC Master Catalog

Two Line Element Set (TLE):
1 45187U 20012K   21024.79662568  .00000308  00000-0  39579-4 0  9996
2 45187  53.0573 160.8710 0001679  80.6504 279.4675 15.06388499 52997
Source of the keplerian elements: AFSPC